Time,TemperatureF,DewpointF,PressureIn,WindDirection,WindDirectionDegrees,WindSpeedMPH,WindSpeedGustMPH,Humidity,HourlyPrecipIn,Conditions,Clouds,dailyrainin,SolarRadiationWatts/m^2,SoftwareType,DateUTC
2013-08-14 00:02:00,83.8,35.8,-100.00,SSW,198,0.0,-999.0,18,-99.99,,,0.00,0.0,meteohub,2013-08-14 04:02:00,
2013-08-14 00:07:00,84.0,36.0,-100.00,SSW,199,5.0,-999.0,18,-99.99,,,0.00,0.0,meteohub,2013-08-14 04:07:00,
2013-08-14 00:12:00,84.4,36.3,-100.00,SSW,192,0.0,-999.0,18,-99.99,,,0.00,0.0,meteohub,2013-08-14 04:12:00,
2013-08-14 00:17:00,84.0,34.5,-100.00,SSW,192,0.0,-999.0,17,-99.99,,,0.00,0.0,meteohub,2013-08-14 04:17:00,
2013-08-14 00:22:00,84.4,33.3,-100.00,South,191,0.0,-999.0,16,-99.99,,,0.00,0.0,meteohub,2013-08-14 04:22:00,
2013-08-14 00:27:00,84.4,33.3,-100.00,South,188,3.0,-999.0,16,-99.99,,,0.00,0.0,meteohub,2013-08-14 04:27:00,
2013-08-14 00:32:00,84.4,31.6,-100.00,South,186,4.0,-999.0,15,-99.99,,,0.00,0.0,meteohub,2013-08-14 04:32:00,
2013-08-14 00:37:00,84.7,33.6,-100.00,SSE,157,0.0,-999.0,16,-99.99,,,0.00,0.0,meteohub,2013-08-14 04:37:00,
2013-08-14 00:42:00,84.4,31.6,-100.00,South,191,0.0,-999.0,15,-99.99,,,0.00,0.0,meteohub,2013-08-14 04:42:00,
2013-08-14 00:47:00,84.0,27.9,-100.00,SSW,194,3.0,-999.0,13,-99.99,,,0.00,0.0,meteohub,2013-08-14 04:47:00,
2013-08-14 00:52:00,84.2,28.0,-100.00,SSW,196,4.0,-999.0,13,-99.99,,,0.00,0.0,meteohub,2013-08-14 04:52:00,
2013-08-14 00:57:00,84.0,27.9,-100.00,South,187,1.0,-999.0,13,-99.99,,,0.00,0.0,meteohub,2013-08-14 04:57:00,
2013-08-14 01:02:00,84.0,25.9,-100.00,South,190,1.0,-999.0,12,-99.99,,,0.00,0.0,meteohub,2013-08-14 05:02:00,
2013-08-14 01:07:00,84.2,26.1,-100.00,South,190,3.0,-999.0,12,-99.99,,,0.00,0.0,meteohub,2013-08-14 05:07:00,
2013-08-14 01:17:00,84.0,25.9,-100.00,SSW,199,0.0,-999.0,12,-99.99,,,0.00,0.0,meteohub,2013-08-14 05:17:00,
2013-08-14 01:22:00,83.8,23.7,-100.00,SSW,198,4.0,-999.0,11,-99.99,,,0.00,0.0,meteohub,2013-08-14 05:22:00,
2013-08-14 01:27:00,83.8,23.7,-100.00,SSE,161,0.0,-999.0,11,-99.99,,,0.00,0.0,meteohub,2013-08-14 05:27:00,
2013-08-14 01:32:00,84.0,23.9,-100.00,SSW,192,3.0,-999.0,11,-99.99,,,0.00,0.0,meteohub,2013-08-14 05:32:00,
2013-08-14 01:37:00,84.0,25.9,-100.00,South,191,0.0,-999.0,12,-99.99,,,0.00,0.0,meteohub,2013-08-14 05:37:00,
2013-08-14 01:42:00,83.8,25.9,-100.00,SSW,192,0.0,-999.0,12,-99.99,,,0.00,0.0,meteohub,2013-08-14 05:42:00,
2013-08-14 01:47:00,83.7,23.5,-100.00,SSW,192,0.0,-999.0,11,-99.99,,,0.00,0.0,meteohub,2013-08-14 05:47:00,
2013-08-14 01:52:00,83.7,23.5,-100.00,SSW,196,4.0,-999.0,11,-99.99,,,0.00,0.0,meteohub,2013-08-14 05:52:00,
2013-08-14 01:57:00,83.7,23.5,-100.00,SSW,194,2.0,-999.0,11,-99.99,,,0.00,0.0,meteohub,2013-08-14 05:57:00,
2013-08-14 02:02:00,83.5,23.4,-100.00,SSW,194,0.0,-999.0,11,-99.99,,,0.00,0.0,meteohub,2013-08-14 06:02:00,
2013-08-14 02:07:00,83.3,21.0,-100.00,SSW,194,0.0,-999.0,10,-99.99,,,0.00,0.0,meteohub,2013-08-14 06:07:00,
2013-08-14 02:12:00,83.7,23.5,-100.00,SSW,195,3.0,-999.0,11,-99.99,,,0.00,0.0,meteohub,2013-08-14 06:12:00,
2013-08-14 02:17:00,83.5,23.4,-100.00,SSW,195,0.0,-999.0,11,-99.99,,,0.00,0.0,meteohub,2013-08-14 06:17:00,
2013-08-14 02:22:00,83.7,23.5,-100.00,SSW,196,3.0,-999.0,11,-99.99,,,0.00,0.0,meteohub,2013-08-14 06:22:00,
2013-08-14 02:27:00,83.5,23.4,-100.00,SSW,196,0.0,-999.0,11,-99.99,,,0.00,0.0,meteohub,2013-08-14 06:27:00,
2013-08-14 02:32:00,83.5,23.4,-100.00,SSW,196,0.0,-999.0,11,-99.99,,,0.00,0.0,meteohub,2013-08-14 06:32:00,
2013-08-14 02:37:00,83.5,23.4,-100.00,SSW,196,0.0,-999.0,11,-99.99,,,0.00,0.0,meteohub,2013-08-14 06:37:00,
2013-08-14 02:42:00,83.3,23.4,-100.00,SSW,196,2.0,-999.0,11,-99.99,,,0.00,0.0,meteohub,2013-08-14 06:42:00,
2013-08-14 02:47:00,83.1,23.2,-100.00,SSW,196,0.0,-999.0,11,-99.99,,,0.00,0.0,meteohub,2013-08-14 06:47:00,
2013-08-14 02:52:00,82.9,23.0,-100.00,SSW,196,0.0,-999.0,11,-99.99,,,0.00,0.0,meteohub,2013-08-14 06:52:00,
2013-08-14 02:57:00,82.9,20.8,-100.00,SSW,196,0.0,-999.0,10,-99.99,,,0.00,0.0,meteohub,2013-08-14 06:57:00,
2013-08-14 03:02:00,82.9,20.8,-100.00,SSW,196,0.0,-999.0,10,-99.99,,,0.00,0.0,meteohub,2013-08-14 07:02:00,
2013-08-14 03:07:00,82.9,20.8,-100.00,SSW,196,0.0,-999.0,10,-99.99,,,0.00,0.0,meteohub,2013-08-14 07:07:00,
2013-08-14 03:12:00,82.9,20.8,-100.00,SSW,196,0.0,-999.0,10,-99.99,,,0.00,0.0,meteohub,2013-08-14 07:12:00,
2013-08-14 03:17:00,82.9,20.8,-100.00,SSW,196,0.0,-999.0,10,-99.99,,,0.00,0.0,meteohub,2013-08-14 07:17:00,
2013-08-14 03:22:00,82.8,20.7,-100.00,SSW,196,0.0,-999.0,10,-99.99,,,0.00,0.0,meteohub,2013-08-14 07:22:00,
2013-08-14 03:27:00,82.8,20.7,-100.00,SSW,196,0.0,-999.0,10,-99.99,,,0.00,0.0,meteohub,2013-08-14 07:27:00,
2013-08-14 03:32:00,82.6,20.5,-100.00,SSW,196,0.0,-999.0,10,-99.99,,,0.00,0.0,meteohub,2013-08-14 07:32:00,
2013-08-14 03:37:00,82.6,20.5,-100.00,SSW,196,0.0,-999.0,10,-99.99,,,0.00,0.0,meteohub,2013-08-14 07:37:00,
2013-08-14 03:42:00,82.4,20.3,-100.00,SSW,196,0.0,-999.0,10,-99.99,,,0.00,0.0,meteohub,2013-08-14 07:42:00,
2013-08-14 03:47:00,82.2,20.3,-100.00,SSW,196,0.0,-999.0,10,-99.99,,,0.00,0.0,meteohub,2013-08-14 07:47:00,
2013-08-14 03:52:00,82.2,20.3,-100.00,SSW,196,0.0,-999.0,10,-99.99,,,0.00,0.0,meteohub,2013-08-14 07:52:00,
2013-08-14 04:02:00,82.4,20.3,-100.00,SSW,196,0.0,-999.0,10,-99.99,,,0.00,0.0,meteohub,2013-08-14 08:02:00,
2013-08-14 04:07:00,82.2,20.3,-100.00,SSW,196,0.0,-999.0,10,-99.99,,,0.00,0.0,meteohub,2013-08-14 08:07:00,
2013-08-14 04:12:00,82.2,20.3,-100.00,SSW,196,0.0,-999.0,10,-99.99,,,0.00,0.0,meteohub,2013-08-14 08:12:00,
2013-08-14 04:17:00,82.2,20.3,-100.00,SSW,196,0.0,-999.0,10,-99.99,,,0.00,0.0,meteohub,2013-08-14 08:17:00,
2013-08-14 04:22:00,82.2,20.3,-100.00,SSW,196,0.0,-999.0,10,-99.99,,,0.00,0.0,meteohub,2013-08-14 08:22:00,
2013-08-14 04:27:00,82.0,20.1,-100.00,SSW,196,0.0,-999.0,10,-99.99,,,0.00,0.0,meteohub,2013-08-14 08:27:00,
2013-08-14 04:32:00,81.9,19.9,-100.00,SSW,196,0.0,-999.0,10,-99.99,,,0.00,0.0,meteohub,2013-08-14 08:32:00,
2013-08-14 04:37:00,81.5,19.8,-100.00,SSW,196,0.0,-999.0,10,-99.99,,,0.00,0.0,meteohub,2013-08-14 08:37:00,
2013-08-14 04:42:00,81.3,19.6,-100.00,SSW,196,0.0,-999.0,10,-99.99,,,0.00,0.0,meteohub,2013-08-14 08:42:00,
2013-08-14 04:47:00,81.1,19.4,-100.00,SSW,196,0.0,-999.0,10,-99.99,,,0.00,0.0,meteohub,2013-08-14 08:47:00,
2013-08-14 04:52:00,81.1,19.4,-100.00,SSW,196,0.0,-999.0,10,-99.99,,,0.00,0.0,meteohub,2013-08-14 08:52:00,
2013-08-14 04:57:00,81.0,19.2,-100.00,SSW,196,0.0,-999.0,10,-99.99,,,0.00,0.0,meteohub,2013-08-14 08:57:00,
2013-08-14 05:02:00,81.0,19.2,-100.00,SSW,196,0.0,-999.0,10,-99.99,,,0.00,0.0,meteohub,2013-08-14 09:02:00,
2013-08-14 05:07:00,81.0,19.2,-100.00,SSW,196,0.0,-999.0,10,-99.99,,,0.00,0.0,meteohub,2013-08-14 09:07:00,
2013-08-14 05:12:00,80.8,19.2,-100.00,SSW,196,0.0,-999.0,10,-99.99,,,0.00,0.0,meteohub,2013-08-14 09:12:00,
2013-08-14 05:17:00,80.6,19.0,-100.00,SSW,196,0.0,-999.0,10,-99.99,,,0.00,0.0,meteohub,2013-08-14 09:17:00,
2013-08-14 05:22:00,80.4,18.9,-100.00,SSW,196,0.0,-999.0,10,-99.99,,,0.00,0.0,meteohub,2013-08-14 09:22:00,
2013-08-14 05:27:00,80.2,18.7,-100.00,SSW,196,0.0,-999.0,10,-99.99,,,0.00,0.0,meteohub,2013-08-14 09:27:00,
2013-08-14 05:32:00,80.1,18.5,-100.00,SSW,196,0.0,-999.0,10,-99.99,,,0.00,0.0,meteohub,2013-08-14 09:32:00,
2013-08-14 05:37:00,79.9,20.7,-100.00,SSW,196,0.0,-999.0,11,-99.99,,,0.00,0.0,meteohub,2013-08-14 09:37:00,
2013-08-14 05:42:00,79.9,20.7,-100.00,SSW,196,0.0,-999.0,11,-99.99,,,0.00,0.0,meteohub,2013-08-14 09:42:00,
2013-08-14 05:47:00,79.7,20.5,-100.00,SSW,196,0.0,-999.0,11,-99.99,,,0.00,0.0,meteohub,2013-08-14 09:47:00,
2013-08-14 05:52:00,79.5,20.5,-100.00,SSW,196,0.0,-999.0,11,-99.99,,,0.00,0.0,meteohub,2013-08-14 09:52:00,
2013-08-14 05:57:00,79.5,20.5,-100.00,SSW,196,0.0,-999.0,11,-99.99,,,0.00,0.0,meteohub,2013-08-14 09:57:00,
2013-08-14 06:02:00,79.3,20.3,-100.00,SSW,196,0.0,-999.0,11,-99.99,,,0.00,0.0,meteohub,2013-08-14 10:02:00,
2013-08-14 06:07:00,79.2,22.1,-100.00,SSW,196,0.0,-999.0,12,-99.99,,,0.00,0.0,meteohub,2013-08-14 10:07:00,
2013-08-14 06:12:00,79.0,22.1,-100.00,SSW,196,0.0,-999.0,12,-99.99,,,0.00,0.0,meteohub,2013-08-14 10:12:00,
2013-08-14 06:17:00,78.6,21.7,-100.00,SSW,196,0.0,-999.0,12,-99.99,,,0.00,0.0,meteohub,2013-08-14 10:17:00,
2013-08-14 06:22:00,78.4,21.6,-100.00,SSW,196,0.0,-999.0,12,-99.99,,,0.00,0.0,meteohub,2013-08-14 10:22:00,
2013-08-14 06:27:00,78.3,21.6,-100.00,SSW,196,0.0,-999.0,12,-99.99,,,0.00,0.0,meteohub,2013-08-14 10:27:00,
2013-08-14 06:32:00,78.1,23.2,-100.00,SSW,196,0.0,-999.0,13,-99.99,,,0.00,0.0,meteohub,2013-08-14 10:32:00,
2013-08-14 06:37:00,78.4,23.5,-100.00,SSW,196,0.0,-999.0,13,-99.99,,,0.00,0.0,meteohub,2013-08-14 10:37:00,
2013-08-14 06:42:00,78.3,23.4,-100.00,SSW,196,0.0,-999.0,13,-99.99,,,0.00,0.0,meteohub,2013-08-14 10:42:00,
2013-08-14 06:47:00,78.3,23.4,-100.00,SSW,196,1.0,-999.0,13,-99.99,,,0.00,0.0,meteohub,2013-08-14 10:47:00,
2013-08-14 06:52:00,78.3,25.2,-100.00,SSW,196,0.0,-999.0,14,-99.99,,,0.00,0.0,meteohub,2013-08-14 10:52:00,
2013-08-14 06:57:00,78.4,25.3,-100.00,SSW,196,1.0,-999.0,14,-99.99,,,0.00,5.0,meteohub,2013-08-14 10:57:00,
2013-08-14 07:02:00,78.4,25.3,-100.00,SSW,196,0.0,-999.0,14,-99.99,,,0.00,9.0,meteohub,2013-08-14 11:02:00,
2013-08-14 07:07:00,78.6,25.5,-100.00,SSW,196,0.0,-999.0,14,-99.99,,,0.00,11.0,meteohub,2013-08-14 11:07:00,
2013-08-14 07:12:00,78.4,25.3,-100.00,SSW,196,0.0,-999.0,14,-99.99,,,0.00,14.0,meteohub,2013-08-14 11:12:00,
2013-08-14 07:17:00,78.4,25.3,-100.00,SSW,196,0.0,-999.0,14,-99.99,,,0.00,19.0,meteohub,2013-08-14 11:17:00,
2013-08-14 07:22:00,78.6,25.5,-100.00,SSW,196,0.0,-999.0,14,-99.99,,,0.00,35.0,meteohub,2013-08-14 11:22:00,
2013-08-14 07:27:00,78.6,25.5,-100.00,SSW,196,0.0,-999.0,14,-99.99,,,0.00,37.0,meteohub,2013-08-14 11:27:00,
2013-08-14 07:32:00,78.8,25.5,-100.00,SSW,196,2.0,-999.0,14,-99.99,,,0.00,53.0,meteohub,2013-08-14 11:32:00,
2013-08-14 07:37:00,79.2,25.9,-100.00,SSW,196,0.0,-999.0,14,-99.99,,,0.00,88.0,meteohub,2013-08-14 11:37:00,
2013-08-14 07:42:00,79.3,26.1,-100.00,SSW,196,0.0,-999.0,14,-99.99,,,0.00,40.0,meteohub,2013-08-14 11:42:00,
2013-08-14 07:47:00,79.7,24.4,-100.00,SSW,196,0.0,-999.0,13,-99.99,,,0.00,37.0,meteohub,2013-08-14 11:47:00,
2013-08-14 07:52:00,79.9,24.6,-100.00,SSW,196,0.0,-999.0,13,-99.99,,,0.00,54.0,meteohub,2013-08-14 11:52:00,
2013-08-14 07:57:00,80.2,25.0,-100.00,SSW,196,0.0,-999.0,13,-99.99,,,0.00,181.0,meteohub,2013-08-14 11:57:00,
2013-08-14 08:02:00,80.6,23.4,-100.00,SSW,196,0.0,-999.0,12,-99.99,,,0.00,158.0,meteohub,2013-08-14 12:02:00,
2013-08-14 08:07:00,81.1,23.7,-100.00,SSW,196,0.0,-999.0,12,-99.99,,,0.00,70.0,meteohub,2013-08-14 12:07:00,
2013-08-14 08:12:00,81.5,21.9,-100.00,SSW,196,0.0,-999.0,11,-99.99,,,0.00,195.0,meteohub,2013-08-14 12:12:00,
2013-08-14 08:17:00,82.0,22.3,-100.00,SSW,196,0.0,-999.0,11,-99.99,,,0.00,272.0,meteohub,2013-08-14 12:17:00,
2013-08-14 08:22:00,82.6,20.5,-100.00,SSW,196,0.0,-999.0,10,-99.99,,,0.00,276.0,meteohub,2013-08-14 12:22:00,
2013-08-14 08:27:00,83.5,18.7,-100.00,SSW,196,0.0,-999.0,9,-99.99,,,0.00,294.0,meteohub,2013-08-14 12:27:00,
2013-08-14 08:32:00,84.0,16.3,-100.00,SSW,196,0.0,-999.0,8,-99.99,,,0.00,183.0,meteohub,2013-08-14 12:32:00,
2013-08-14 08:37:00,84.6,16.9,-100.00,SSW,196,0.0,-999.0,8,-99.99,,,0.00,350.0,meteohub,2013-08-14 12:37:00,
2013-08-14 08:42:00,85.3,20.1,-100.00,SSW,196,0.0,-999.0,9,-99.99,,,0.00,376.0,meteohub,2013-08-14 12:42:00,
2013-08-14 08:52:00,85.8,25.2,-100.00,SSW,196,0.0,-999.0,11,-99.99,,,0.00,378.0,meteohub,2013-08-14 12:52:00,
2013-08-14 08:57:00,86.2,25.5,-100.00,SSW,196,4.0,-999.0,11,-99.99,,,0.00,406.0,meteohub,2013-08-14 12:57:00,
2013-08-14 09:02:00,86.0,29.5,-100.00,SSW,198,1.0,-999.0,13,-99.99,,,0.00,422.0,meteohub,2013-08-14 13:02:00,
2013-08-14 09:07:00,86.2,27.7,-100.00,SSW,198,0.0,-999.0,12,-99.99,,,0.00,355.0,meteohub,2013-08-14 13:07:00,
2013-08-14 09:12:00,86.0,32.9,-100.00,SSW,204,3.0,-999.0,15,-99.99,,,0.00,100.0,meteohub,2013-08-14 13:12:00,
2013-08-14 09:17:00,85.8,32.9,-100.00,SSW,202,4.0,-999.0,15,-99.99,,,0.00,489.0,meteohub,2013-08-14 13:17:00,
2013-08-14 09:22:00,85.8,32.9,-100.00,SSW,198,0.0,-999.0,15,-99.99,,,0.00,309.0,meteohub,2013-08-14 13:22:00,
2013-08-14 09:32:00,86.4,33.3,-100.00,SSW,211,0.0,-999.0,15,-99.99,,,0.00,320.0,meteohub,2013-08-14 13:32:00,
2013-08-14 09:37:00,86.2,36.3,-100.00,SSW,211,0.0,-999.0,17,-99.99,,,0.00,580.0,meteohub,2013-08-14 13:37:00,
2013-08-14 09:42:00,86.2,37.8,-100.00,SSW,206,3.0,-999.0,18,-99.99,,,0.00,125.0,meteohub,2013-08-14 13:42:00,
2013-08-14 09:47:00,86.2,40.5,-100.00,SSW,202,0.0,-999.0,20,-99.99,,,0.00,132.0,meteohub,2013-08-14 13:47:00,
2013-08-14 09:57:00,85.8,40.1,-100.00,SSW,204,0.0,-999.0,20,-99.99,,,0.00,139.0,meteohub,2013-08-14 13:57:00,
2013-08-14 10:02:00,85.8,42.6,-100.00,SSW,203,0.0,-999.0,22,-99.99,,,0.00,134.0,meteohub,2013-08-14 14:02:00,
2013-08-14 10:07:00,85.8,42.6,-100.00,SSW,204,0.0,-999.0,22,-99.99,,,0.00,169.0,meteohub,2013-08-14 14:07:00,
2013-08-14 10:12:00,85.8,42.6,-100.00,SSW,198,1.0,-999.0,22,-99.99,,,0.00,165.0,meteohub,2013-08-14 14:12:00,
2013-08-14 10:17:00,86.0,42.8,-100.00,SSW,198,0.0,-999.0,22,-99.99,,,0.00,158.0,meteohub,2013-08-14 14:17:00,
2013-08-14 10:22:00,85.8,44.8,-100.00,SSW,198,0.0,-999.0,24,-99.99,,,0.00,325.0,meteohub,2013-08-14 14:22:00,
2013-08-14 10:27:00,86.2,45.1,-100.00,SSW,198,0.0,-999.0,24,-99.99,,,0.00,183.0,meteohub,2013-08-14 14:27:00,
2013-08-14 10:32:00,86.4,49.5,-100.00,SSW,198,0.0,-999.0,28,-99.99,,,0.00,780.0,meteohub,2013-08-14 14:32:00,
2013-08-14 10:37:00,86.4,51.3,-100.00,SSW,198,0.0,-999.0,30,-99.99,,,0.00,155.0,meteohub,2013-08-14 14:37:00,
2013-08-14 10:42:00,86.4,53.8,-100.00,SSW,198,0.0,-999.0,33,-99.99,,,0.00,206.0,meteohub,2013-08-14 14:42:00,
2013-08-14 10:47:00,86.4,53.8,-100.00,SSW,198,0.0,-999.0,33,-99.99,,,0.00,160.0,meteohub,2013-08-14 14:47:00,
2013-08-14 10:52:00,86.2,53.8,-100.00,SSW,198,0.0,-999.0,33,-99.99,,,0.00,195.0,meteohub,2013-08-14 14:52:00,
2013-08-14 10:57:00,86.5,54.9,-100.00,SSW,198,0.0,-999.0,34,-99.99,,,0.00,956.0,meteohub,2013-08-14 14:57:00,
2013-08-14 11:02:00,86.7,60.3,-100.00,SSE,152,3.0,-999.0,41,-99.99,,,0.00,937.0,meteohub,2013-08-14 15:02:00,
2013-08-14 11:07:00,87.1,62.6,-100.00,SE,145,0.0,-999.0,44,-99.99,,,0.00,895.0,meteohub,2013-08-14 15:07:00,
2013-08-14 11:12:00,87.8,65.7,-100.00,SSW,205,4.0,-999.0,48,-99.99,,,0.00,844.0,meteohub,2013-08-14 15:12:00,
2013-08-14 11:17:00,88.3,66.7,-100.00,South,186,5.0,-999.0,49,-99.99,,,0.00,854.0,meteohub,2013-08-14 15:17:00,
2013-08-14 11:22:00,88.3,65.5,-100.00,SW,215,4.0,-999.0,47,-99.99,,,0.00,861.0,meteohub,2013-08-14 15:22:00,
2013-08-14 11:27:00,88.5,65.7,-100.00,SSE,158,10.0,-999.0,47,-99.99,,,0.00,872.0,meteohub,2013-08-14 15:27:00,
2013-08-14 11:32:00,88.5,66.4,-100.00,South,184,7.0,-999.0,48,-99.99,,,0.00,881.0,meteohub,2013-08-14 15:32:00,
2013-08-14 11:37:00,88.5,65.1,-100.00,South,187,4.0,-999.0,46,-99.99,,,0.00,893.0,meteohub,2013-08-14 15:37:00,
2013-08-14 11:42:00,89.1,67.5,-100.00,South,185,2.0,-999.0,49,-99.99,,,0.00,904.0,meteohub,2013-08-14 15:42:00,
2013-08-14 11:47:00,89.2,66.9,-100.00,SSW,199,3.0,-999.0,48,-99.99,,,0.00,914.0,meteohub,2013-08-14 15:47:00,
2013-08-14 11:57:00,89.8,69.3,-100.00,SSE,161,3.0,-999.0,51,-99.99,,,0.00,930.0,meteohub,2013-08-14 15:57:00,
2013-08-14 12:02:00,90.0,70.0,-100.00,SSW,213,2.0,-999.0,52,-99.99,,,0.00,937.0,meteohub,2013-08-14 16:02:00,
2013-08-14 12:07:00,90.1,68.9,-100.00,SSW,200,9.0,-999.0,50,-99.99,,,0.00,939.0,meteohub,2013-08-14 16:07:00,
2013-08-14 12:12:00,90.1,70.2,-100.00,South,183,3.0,-999.0,52,-99.99,,,0.00,946.0,meteohub,2013-08-14 16:12:00,
2013-08-14 12:17:00,90.1,70.2,-100.00,SE,130,6.0,-999.0,52,-99.99,,,0.00,951.0,meteohub,2013-08-14 16:17:00,
2013-08-14 12:22:00,90.0,69.4,-100.00,SSW,199,5.0,-999.0,51,-99.99,,,0.00,958.0,meteohub,2013-08-14 16:22:00,
2013-08-14 12:27:00,90.3,70.3,-100.00,SSE,159,11.0,-999.0,52,-99.99,,,0.00,967.0,meteohub,2013-08-14 16:27:00,
2013-08-14 12:37:00,90.7,70.7,-100.00,South,171,6.0,-999.0,52,-99.99,,,0.00,970.0,meteohub,2013-08-14 16:37:00,
2013-08-14 12:42:00,90.0,69.4,-100.00,SE,138,9.0,-999.0,51,-99.99,,,0.00,976.0,meteohub,2013-08-14 16:42:00,
2013-08-14 12:47:00,90.1,70.2,-100.00,SE,127,8.0,-999.0,52,-99.99,,,0.00,981.0,meteohub,2013-08-14 16:47:00,
2013-08-14 12:52:00,90.7,70.7,-100.00,SSW,192,4.0,-999.0,52,-99.99,,,0.00,977.0,meteohub,2013-08-14 16:52:00,
2013-08-14 12:57:00,90.7,70.0,-100.00,South,175,4.0,-999.0,51,-99.99,,,0.00,984.0,meteohub,2013-08-14 16:57:00,
2013-08-14 13:02:00,90.7,69.4,-100.00,SSW,202,10.0,-999.0,50,-99.99,,,0.00,984.0,meteohub,2013-08-14 17:02:00,
2013-08-14 13:12:00,90.0,67.1,-100.00,SE,145,8.0,-999.0,47,-99.99,,,0.00,990.0,meteohub,2013-08-14 17:12:00,
2013-08-14 13:17:00,90.0,66.4,-100.00,SSE,164,9.0,-999.0,46,-99.99,,,0.00,993.0,meteohub,2013-08-14 17:17:00,
2013-08-14 13:22:00,89.2,65.1,-100.00,SSW,195,9.0,-999.0,45,-99.99,,,0.00,990.0,meteohub,2013-08-14 17:22:00,
2013-08-14 13:32:00,89.6,66.0,-100.00,South,189,9.0,-999.0,46,-99.99,,,0.00,993.0,meteohub,2013-08-14 17:32:00,
2013-08-14 13:42:00,90.1,67.1,-100.00,SSE,151,3.0,-999.0,47,-99.99,,,0.00,988.0,meteohub,2013-08-14 17:42:00,
2013-08-14 13:47:00,90.3,69.1,-100.00,South,175,6.0,-999.0,50,-99.99,,,0.00,983.0,meteohub,2013-08-14 17:47:00,
2013-08-14 13:52:00,89.8,67.5,-100.00,SSE,167,9.0,-999.0,48,-99.99,,,0.00,981.0,meteohub,2013-08-14 17:52:00,
2013-08-14 14:02:00,90.0,66.4,-100.00,SE,138,6.0,-999.0,46,-99.99,,,0.00,969.0,meteohub,2013-08-14 18:02:00,
2013-08-14 14:07:00,89.8,67.5,-100.00,South,183,10.0,-999.0,48,-99.99,,,0.00,967.0,meteohub,2013-08-14 18:07:00,
2013-08-14 14:12:00,89.8,66.2,-100.00,SSW,194,10.0,-999.0,46,-99.99,,,0.00,958.0,meteohub,2013-08-14 18:12:00,
2013-08-14 14:17:00,89.4,68.4,-100.00,SE,135,7.0,-999.0,50,-99.99,,,0.00,962.0,meteohub,2013-08-14 18:17:00,
2013-08-14 14:30:00,89.2,65.1,-100.00,SSE,154,4.0,-999.0,45,-99.99,,,0.00,944.0,meteohub,2013-08-14 18:30:00,
2013-08-14 14:37:00,90.0,67.6,-100.00,South,171,11.0,-999.0,48,-99.99,,,0.00,937.0,meteohub,2013-08-14 18:37:00,
2013-08-14 14:52:00,89.6,66.7,-100.00,SE,132,4.0,-999.0,47,-99.99,,,0.00,912.0,meteohub,2013-08-14 18:52:00,
2013-08-14 14:57:00,90.1,68.4,-100.00,SSE,152,7.0,-999.0,49,-99.99,,,0.00,900.0,meteohub,2013-08-14 18:57:00,
2013-08-14 15:07:00,90.0,68.2,-100.00,SSE,167,6.0,-999.0,49,-99.99,,,0.00,882.0,meteohub,2013-08-14 19:07:00,
2013-08-14 15:12:00,90.0,69.4,-100.00,South,179,8.0,-999.0,51,-99.99,,,0.00,875.0,meteohub,2013-08-14 19:12:00,
2013-08-14 15:22:00,90.0,69.4,-100.00,South,186,9.0,-999.0,51,-99.99,,,0.00,853.0,meteohub,2013-08-14 19:22:00,
2013-08-14 15:27:00,90.1,69.6,-100.00,SSW,205,6.0,-999.0,51,-99.99,,,0.00,846.0,meteohub,2013-08-14 19:27:00,
2013-08-14 15:35:00,90.1,69.6,-100.00,South,190,9.0,-999.0,51,-99.99,,,0.00,826.0,meteohub,2013-08-14 19:35:00,
2013-08-14 15:42:00,89.8,68.7,-100.00,South,183,7.0,-999.0,50,-99.99,,,0.00,803.0,meteohub,2013-08-14 19:42:00,
2013-08-14 15:47:00,90.0,67.6,-100.00,SE,141,7.0,-999.0,48,-99.99,,,0.00,796.0,meteohub,2013-08-14 19:47:00,
2013-08-14 15:52:00,89.2,64.4,-100.00,SSE,156,7.0,-999.0,44,-99.99,,,0.00,779.0,meteohub,2013-08-14 19:52:00,
2013-08-14 15:57:00,89.1,64.2,-100.00,SSW,205,7.0,-999.0,44,-99.99,,,0.00,763.0,meteohub,2013-08-14 19:57:00,
2013-08-14 16:07:00,89.4,67.8,-100.00,SSE,155,3.0,-999.0,49,-99.99,,,0.00,737.0,meteohub,2013-08-14 20:07:00,
2013-08-14 16:12:00,89.2,64.4,-100.00,SSE,168,5.0,-999.0,44,-99.99,,,0.00,721.0,meteohub,2013-08-14 20:12:00,
2013-08-14 16:17:00,88.9,63.5,-100.00,South,184,6.0,-999.0,43,-99.99,,,0.00,705.0,meteohub,2013-08-14 20:17:00,
2013-08-14 16:22:00,89.2,66.4,-100.00,SSW,197,9.0,-999.0,47,-99.99,,,0.00,694.0,meteohub,2013-08-14 20:22:00,
2013-08-14 16:27:00,89.2,65.7,-100.00,SE,141,5.0,-999.0,46,-99.99,,,0.00,680.0,meteohub,2013-08-14 20:27:00,
2013-08-14 16:32:00,88.5,63.1,-100.00,SSW,194,7.0,-999.0,43,-99.99,,,0.00,668.0,meteohub,2013-08-14 20:32:00,
2013-08-14 16:42:00,88.9,64.8,-100.00,South,189,14.0,-999.0,45,-99.99,,,0.00,663.0,meteohub,2013-08-14 20:42:00,
2013-08-14 16:52:00,88.9,65.5,-100.00,SSW,206,4.0,-999.0,46,-99.99,,,0.00,661.0,meteohub,2013-08-14 20:52:00,
2013-08-14 16:57:00,88.5,63.9,-100.00,South,172,7.0,-999.0,44,-99.99,,,0.00,643.0,meteohub,2013-08-14 20:57:00,
2013-08-14 17:02:00,88.5,63.1,-100.00,SE,138,7.0,-999.0,43,-99.99,,,0.00,613.0,meteohub,2013-08-14 21:02:00,
2013-08-14 17:07:00,88.2,65.3,-100.00,SSW,203,17.0,-999.0,47,-99.99,,,0.00,582.0,meteohub,2013-08-14 21:07:00,
2013-08-14 17:12:00,88.2,63.5,-100.00,SSW,199,10.0,-999.0,44,-99.99,,,0.00,548.0,meteohub,2013-08-14 21:12:00,
2013-08-14 17:17:00,88.3,63.7,-100.00,SE,145,4.0,-999.0,44,-99.99,,,0.00,527.0,meteohub,2013-08-14 21:17:00,
2013-08-14 17:22:00,88.0,62.1,-100.00,South,188,9.0,-999.0,42,-99.99,,,0.00,510.0,meteohub,2013-08-14 21:22:00,
2013-08-14 17:27:00,87.6,62.4,-100.00,SE,136,11.0,-999.0,43,-99.99,,,0.00,490.0,meteohub,2013-08-14 21:27:00,
2013-08-14 17:32:00,87.4,62.8,-100.00,South,173,6.0,-999.0,44,-99.99,,,0.00,468.0,meteohub,2013-08-14 21:32:00,
2013-08-14 17:37:00,87.4,62.2,-100.00,ESE,117,11.0,-999.0,43,-99.99,,,0.00,450.0,meteohub,2013-08-14 21:37:00,
2013-08-14 17:42:00,88.0,65.3,-100.00,SSW,196,11.0,-999.0,47,-99.99,,,0.00,431.0,meteohub,2013-08-14 21:42:00,
2013-08-14 17:47:00,87.4,62.8,-100.00,South,184,3.0,-999.0,44,-99.99,,,0.00,413.0,meteohub,2013-08-14 21:47:00,
2013-08-14 17:57:00,87.6,63.0,-100.00,SSW,198,9.0,-999.0,44,-99.99,,,0.00,374.0,meteohub,2013-08-14 21:57:00,
2013-08-14 18:02:00,87.6,63.7,-100.00,SSE,157,6.0,-999.0,45,-99.99,,,0.00,357.0,meteohub,2013-08-14 22:02:00,
2013-08-14 18:07:00,87.1,62.6,-100.00,South,186,5.0,-999.0,44,-99.99,,,0.00,343.0,meteohub,2013-08-14 22:07:00,
2013-08-14 18:12:00,87.1,60.4,-100.00,SSW,207,9.0,-999.0,41,-99.99,,,0.00,323.0,meteohub,2013-08-14 22:12:00,
2013-08-14 18:17:00,87.3,61.3,-100.00,SSE,159,5.0,-999.0,42,-99.99,,,0.00,315.0,meteohub,2013-08-14 22:17:00,
2013-08-14 18:22:00,86.4,56.3,-100.00,SE,126,4.0,-999.0,36,-99.99,,,0.00,309.0,meteohub,2013-08-14 22:22:00,
2013-08-14 18:27:00,86.4,58.5,-100.00,SSE,168,8.0,-999.0,39,-99.99,,,0.00,297.0,meteohub,2013-08-14 22:27:00,
2013-08-14 18:32:00,86.5,58.6,-100.00,South,175,6.0,-999.0,39,-99.99,,,0.00,290.0,meteohub,2013-08-14 22:32:00,
2013-08-14 18:42:00,86.4,60.6,-100.00,South,178,11.0,-999.0,42,-99.99,,,0.00,241.0,meteohub,2013-08-14 22:42:00,
2013-08-14 18:47:00,86.2,59.0,-100.00,South,179,9.0,-999.0,40,-99.99,,,0.00,221.0,meteohub,2013-08-14 22:47:00,
2013-08-14 18:52:00,86.7,62.2,-100.00,South,186,3.0,-999.0,44,-99.99,,,0.00,209.0,meteohub,2013-08-14 22:52:00,
2013-08-14 18:57:00,86.2,59.7,-100.00,SSE,159,6.0,-999.0,41,-99.99,,,0.00,183.0,meteohub,2013-08-14 22:57:00,
2013-08-14 19:07:00,85.3,55.2,-100.00,South,172,4.0,-999.0,36,-99.99,,,0.00,79.0,meteohub,2013-08-14 23:07:00,
2013-08-14 19:12:00,84.7,52.5,-100.00,South,186,6.0,-999.0,33,-99.99,,,0.00,47.0,meteohub,2013-08-14 23:12:00,
2013-08-14 19:17:00,84.9,51.8,-100.00,South,190,6.0,-999.0,32,-99.99,,,0.00,37.0,meteohub,2013-08-14 23:17:00,
2013-08-14 19:22:00,84.7,49.8,-100.00,South,178,1.0,-999.0,30,-99.99,,,0.00,33.0,meteohub,2013-08-14 23:22:00,
2013-08-14 19:27:00,84.7,48.0,-100.00,SSE,149,6.0,-999.0,28,-99.99,,,0.00,40.0,meteohub,2013-08-14 23:27:00,
2013-08-14 19:32:00,84.9,50.0,-100.00,SE,134,7.0,-999.0,30,-99.99,,,0.00,33.0,meteohub,2013-08-14 23:32:00,
2013-08-14 19:37:00,84.9,50.0,-100.00,SSW,196,5.0,-999.0,30,-99.99,,,0.00,25.0,meteohub,2013-08-14 23:37:00,
2013-08-14 19:42:00,84.6,49.6,-100.00,SSE,152,2.0,-999.0,30,-99.99,,,0.00,21.0,meteohub,2013-08-14 23:42:00,
2013-08-14 19:47:00,84.4,52.2,-100.00,SSE,165,3.0,-999.0,33,-99.99,,,0.00,12.0,meteohub,2013-08-14 23:47:00,
2013-08-14 19:52:00,84.4,51.3,-100.00,South,170,5.0,-999.0,32,-99.99,,,0.00,7.0,meteohub,2013-08-14 23:52:00,
2013-08-14 19:57:00,84.4,54.5,-100.00,SSE,148,1.0,-999.0,36,-99.99,,,0.00,0.0,meteohub,2013-08-14 23:57:00,
2013-08-14 20:02:00,84.2,53.6,-100.00,South,173,3.0,-999.0,35,-99.99,,,0.00,0.0,meteohub,2013-08-15 00:02:00,
2013-08-14 20:07:00,84.0,49.3,-100.00,South,184,5.0,-999.0,30,-99.99,,,0.00,0.0,meteohub,2013-08-15 00:07:00,
2013-08-14 20:12:00,84.4,45.7,-100.00,SSW,196,10.0,-999.0,26,-99.99,,,0.00,0.0,meteohub,2013-08-15 00:12:00,
2013-08-14 20:17:00,84.9,44.1,-100.00,South,169,0.0,-999.0,24,-99.99,,,0.00,0.0,meteohub,2013-08-15 00:17:00,
2013-08-14 20:22:00,85.3,42.1,-100.00,South,179,4.0,-999.0,22,-99.99,,,0.00,0.0,meteohub,2013-08-15 00:22:00,
2013-08-14 20:27:00,85.5,41.0,-100.00,SSE,160,5.0,-999.0,21,-99.99,,,0.00,0.0,meteohub,2013-08-15 00:27:00,
2013-08-14 20:32:00,85.6,38.7,-100.00,SW,232,7.0,-999.0,19,-99.99,,,0.00,0.0,meteohub,2013-08-15 00:32:00,
2013-08-14 20:42:00,85.8,38.8,-100.00,SSE,156,5.0,-999.0,19,-99.99,,,0.00,0.0,meteohub,2013-08-15 00:42:00,
2013-08-14 20:47:00,85.5,38.5,-100.00,South,179,4.0,-999.0,19,-99.99,,,0.00,0.0,meteohub,2013-08-15 00:47:00,
2013-08-14 20:52:00,85.6,37.2,-100.00,South,180,10.0,-999.0,18,-99.99,,,0.00,0.0,meteohub,2013-08-15 00:52:00,
2013-08-14 20:57:00,85.8,38.8,-100.00,South,191,7.0,-999.0,19,-99.99,,,0.00,0.0,meteohub,2013-08-15 00:57:00,
2013-08-14 21:02:00,85.6,35.8,-100.00,SSE,155,3.0,-999.0,17,-99.99,,,0.00,0.0,meteohub,2013-08-15 01:02:00,
2013-08-14 21:07:00,85.8,32.9,-100.00,SSW,192,3.0,-999.0,15,-99.99,,,0.00,0.0,meteohub,2013-08-15 01:07:00,
2013-08-14 21:12:00,86.2,33.1,-100.00,South,190,0.0,-999.0,15,-99.99,,,0.00,0.0,meteohub,2013-08-15 01:12:00,
2013-08-14 21:17:00,85.8,32.9,-100.00,South,191,6.0,-999.0,15,-99.99,,,0.00,0.0,meteohub,2013-08-15 01:17:00,
2013-08-14 21:22:00,85.6,34.3,-100.00,South,178,4.0,-999.0,16,-99.99,,,0.00,0.0,meteohub,2013-08-15 01:22:00,
2013-08-14 21:27:00,86.2,37.8,-100.00,SSE,150,4.0,-999.0,18,-99.99,,,0.00,0.0,meteohub,2013-08-15 01:27:00,
2013-08-14 21:32:00,85.8,36.0,-100.00,South,184,6.0,-999.0,17,-99.99,,,0.00,0.0,meteohub,2013-08-15 01:32:00,
2013-08-14 21:37:00,85.8,34.5,-100.00,SSW,194,2.0,-999.0,16,-99.99,,,0.00,0.0,meteohub,2013-08-15 01:37:00,
2013-08-14 21:42:00,86.2,34.7,-100.00,SSE,163,1.0,-999.0,16,-99.99,,,0.00,0.0,meteohub,2013-08-15 01:42:00,
2013-08-14 21:47:00,86.2,37.8,-100.00,SSE,168,0.0,-999.0,18,-99.99,,,0.00,0.0,meteohub,2013-08-15 01:47:00,
2013-08-14 21:52:00,85.6,37.2,-100.00,SE,141,4.0,-999.0,18,-99.99,,,0.00,0.0,meteohub,2013-08-15 01:52:00,
2013-08-14 21:57:00,85.8,34.5,-100.00,SSW,192,3.0,-999.0,16,-99.99,,,0.00,0.0,meteohub,2013-08-15 01:57:00,
2013-08-14 22:02:00,85.8,38.8,-100.00,SE,140,2.0,-999.0,19,-99.99,,,0.00,0.0,meteohub,2013-08-15 02:02:00,
2013-08-14 22:07:00,85.6,38.7,-100.00,South,188,5.0,-999.0,19,-99.99,,,0.00,0.0,meteohub,2013-08-15 02:07:00,
2013-08-14 22:12:00,85.3,38.3,-100.00,South,173,5.0,-999.0,19,-99.99,,,0.00,0.0,meteohub,2013-08-15 02:12:00,
2013-08-14 22:17:00,85.6,41.2,-100.00,South,181,9.0,-999.0,21,-99.99,,,0.00,0.0,meteohub,2013-08-15 02:17:00,
2013-08-14 22:22:00,85.6,43.5,-100.00,South,188,4.0,-999.0,23,-99.99,,,0.00,0.0,meteohub,2013-08-15 02:22:00,
2013-08-14 22:32:00,85.3,39.7,-100.00,South,184,5.0,-999.0,20,-99.99,,,0.00,0.0,meteohub,2013-08-15 02:32:00,
2013-08-14 22:37:00,85.6,38.7,-100.00,SSW,193,6.0,-999.0,19,-99.99,,,0.00,0.0,meteohub,2013-08-15 02:37:00,
2013-08-14 22:42:00,85.8,38.8,-100.00,South,179,4.0,-999.0,19,-99.99,,,0.00,0.0,meteohub,2013-08-15 02:42:00,
2013-08-14 22:47:00,85.6,37.2,-100.00,SSE,164,4.0,-999.0,18,-99.99,,,0.00,0.0,meteohub,2013-08-15 02:47:00,
2013-08-14 22:52:00,85.5,35.6,-100.00,South,177,5.0,-999.0,17,-99.99,,,0.00,0.0,meteohub,2013-08-15 02:52:00,
2013-08-14 22:57:00,85.8,29.3,-100.00,SSW,202,11.0,-999.0,13,-99.99,,,0.00,0.0,meteohub,2013-08-15 02:57:00,
2013-08-14 23:02:00,85.6,22.8,-100.00,SW,214,9.0,-999.0,10,-99.99,,,0.00,0.0,meteohub,2013-08-15 03:02:00,
2013-08-14 23:07:00,85.5,20.1,-100.00,SSE,157,7.0,-999.0,9,-99.99,,,0.00,0.0,meteohub,2013-08-15 03:07:00,
2013-08-14 23:12:00,85.1,17.2,-100.00,South,175,6.0,-999.0,8,-99.99,,,0.00,0.0,meteohub,2013-08-15 03:12:00,
2013-08-14 23:17:00,85.3,17.2,-100.00,South,188,4.0,-999.0,8,-99.99,,,0.00,0.0,meteohub,2013-08-15 03:17:00,
2013-08-14 23:22:00,85.1,17.2,-100.00,South,180,6.0,-999.0,8,-99.99,,,0.00,0.0,meteohub,2013-08-15 03:22:00,
2013-08-14 23:27:00,84.7,19.6,-100.00,South,176,2.0,-999.0,9,-99.99,,,0.00,0.0,meteohub,2013-08-15 03:27:00,
2013-08-14 23:32:00,84.9,19.8,-100.00,SSW,200,0.0,-999.0,9,-99.99,,,0.00,0.0,meteohub,2013-08-15 03:32:00,
2013-08-14 23:37:00,84.9,22.3,-100.00,South,177,5.0,-999.0,10,-99.99,,,0.00,0.0,meteohub,2013-08-15 03:37:00,
2013-08-14 23:42:00,85.5,22.6,-100.00,SSW,199,9.0,-999.0,10,-99.99,,,0.00,0.0,meteohub,2013-08-15 03:42:00,
2013-08-14 23:47:00,85.3,22.6,-100.00,SSW,203,7.0,-999.0,10,-99.99,,,0.00,0.0,meteohub,2013-08-15 03:47:00,
2013-08-14 23:52:00,85.1,22.5,-100.00,South,188,7.0,-999.0,10,-99.99,,,0.00,0.0,meteohub,2013-08-15 03:52:00,
2013-08-14 23:57:00,85.3,20.1,-100.00,SSW,196,9.0,-999.0,9,-99.99,,,0.00,0.0,meteohub,2013-08-15 03:57:00,